W0JFB Weather Reports


time (UTC)temp
F
wind
direction
speed
knots
gust
knots
rain 1hr
in
rain 24hr
in
rain mn
in
humidity
%
barometer
mb
20260507040051 60 0 0.0 0.9 0.00 0.00 0.00 81 1016.2
20260507034549 61 0 0.0 0.9 0.00 0.00 0.00 80 1016.1
20260507033048 61 0 0.0 0.9 0.00 0.00 0.00 79 1016.0
20260507031546 62 0 0.0 0.9 0.00 0.00 0.00 78 1015.9
20260507030051 63 0 0.0 0.9 0.00 0.00 0.00 76 1015.8
20260507024548 64 277 0.0 2.6 0.00 0.00 0.00 74 1015.7
20260507023052 65 261 0.0 1.7 0.00 0.00 0.00 72 1015.7
20260507021550 66 0 0.0 1.7 0.00 0.00 0.00 69 1015.7
20260507020051 68 0 0.0 0.9 0.00 0.00 0.00 65 1015.7
20260507014553 69 250 0.0 1.7 0.00 0.00 0.00 62 1015.9
20260507013106 70 0 0.0 2.6 0.00 0.00 0.00 58 1015.8
20260507011550 69 286 0.0 2.6 0.00 0.00 0.00 59 1015.8
20260507010101 68 83 0.0 4.3 0.00 0.00 0.00 60 1015.8
20260507004551 68 215 0.9 3.5 0.00 0.00 0.00 59 1016.0
20260507003049 69 324 1.7 4.3 0.00 0.00 0.00 59 1016.1
20260507001550 70 322 0.9 5.2 0.00 0.00 0.00 60 1016.0
20260507000045 70 333 1.7 4.3 0.00 0.00 0.00 59 1015.9
20260506234554 71 206 1.7 6.1 0.00 0.00 0.00 57 1015.9
20260506233103 71 290 0.9 4.3 0.00 0.00 0.00 56 1016.0
20260506231550 71 218 0.9 3.5 0.00 0.00 0.00 56 1016.2
20260506224549 72 201 0.9 4.3 0.00 0.00 0.00 55 1016.7
20260506223051 72 0 0.9 3.5 0.00 0.00 0.00 55 1017.1
20260506221556 72 221 0.9 4.3 0.00 0.00 0.00 57 1017.3
20260506220049 71 284 0.9 3.5 0.00 0.00 0.00 58 1017.4
20260506214546 70 249 0.9 3.5 0.00 0.00 0.00 62 1017.5
20260506213042 69 324 0.9 5.2 0.00 0.00 0.00 63 1017.7
20260506211559 69 263 0.9 4.3 0.00 0.00 0.00 62 1018.0
20260506210048 70 262 0.9 3.5 0.00 0.00 0.00 62 1017.9
20260506204546 70 295 0.0 3.5 0.00 0.00 0.00 61 1017.9
20260506203045 69 283 0.0 2.6 0.00 0.00 0.00 62 1018.0
20260506201543 68 255 0.9 3.5 0.00 0.00 0.00 63 1018.0
20260506200048 69 0 0.9 5.2 0.00 0.00 0.00 61 1018.1
20260506194553 69 313 0.0 2.6 0.00 0.00 0.00 61 1018.2
20260506193046 69 232 0.0 3.5 0.00 0.00 0.00 61 1018.3
20260506191557 68 262 0.9 3.5 0.00 0.00 0.00 62 1018.3
20260506190046 68 285 0.9 5.2 0.00 0.00 0.00 63 1018.4
20260506184548 67 260 0.9 3.5 0.00 0.00 0.00 65 1018.5
20260506183050 66 258 0.0 2.6 0.00 0.00 0.00 67 1018.6
20260506181549 66 252 0.0 1.7 0.00 0.00 0.00 65 1018.7
20260506180052 65 0 0.9 2.6 0.00 0.00 0.00 70 1018.6
20260506174548 64 0 0.0 2.6 0.00 0.00 0.00 70 1018.7
20260506173056 63 0 0.0 2.6 0.00 0.00 0.00 73 1018.7
20260506171557 63 0 0.9 3.5 0.00 0.00 0.00 74 1018.7
20260506170058 63 0 0.0 2.6 0.00 0.00 0.00 74 1018.7
20260506164606 62 263 0.9 2.6 0.00 0.00 0.00 73 1018.5
20260506163057 62 259 0.0 1.7 0.00 0.00 0.00 73 1018.6
20260506161546 61 0 0.9 2.6 0.00 0.00 0.00 75 1018.5
20260506160106 60 218 0.0 1.7 0.00 0.00 0.00 75 1018.5
20260506154553 59 253 0.0 1.7 0.00 0.00 0.00 80 1018.5
20260506153049 59 0 0.0 0.9 0.00 0.00 0.00 81 1018.6
20260506151553 58 0 0.0 0.9 0.00 0.00 0.00 84 1018.6
20260506150047 57 0 0.0 0.9 0.00 0.00 0.00 85 1018.5
20260506144552 56 0 0.0 0.9 0.00 0.00 0.00 88 1018.5
20260506143052 54 0 0.0 0.9 0.00 0.00 0.00 88 1018.4
20260506141606 53 0 0.0 0.9 0.00 0.00 0.00 88 1018.3
20260506140048 51 0 0.0 0.9 0.00 0.00 0.00 90 1018.2
20260506134546 49 0 0.0 0.9 0.00 0.00 0.00 91 1018.0
20260506133103 49 0 0.0 0.9 0.00 0.00 0.00 90 1017.9
20260506131544 49 0 0.0 0.9 0.00 0.00 0.00 90 1017.7
20260506130048 49 0 0.0 0.9 0.00 0.00 0.00 90 1017.6
20260506124548 49 0 0.0 0.9 0.00 0.00 0.00 90 1017.6
20260506123049 50 0 0.0 0.9 0.00 0.00 0.00 89 1017.6
20260506121555 50 0 0.0 0.9 0.00 0.00 0.00 89 1017.5
20260506120116 50 0 0.0 0.9 0.00 0.00 0.00 89 1017.6
20260506114550 50 0 0.0 0.9 0.00 0.00 0.00 89 1017.4
20260506113048 50 0 0.0 0.9 0.00 0.00 0.00 89 1017.4
20260506111549 51 0 0.0 0.9 0.00 0.00 0.00 88 1017.3
20260506110048 51 0 0.0 0.9 0.00 0.00 0.00 88 1017.3
20260506104548 51 0 0.0 0.9 0.00 0.00 0.00 88 1017.2
20260506103053 51 0 0.0 0.9 0.00 0.00 0.00 88 1017.2
20260506101549 51 0 0.0 0.9 0.00 0.00 0.00 88 1017.1
20260506100046 52 0 0.0 0.9 0.00 0.00 0.00 87 1017.2
20260506094551 52 0 0.0 0.9 0.00 0.00 0.00 87 1017.2
20260506093052 52 247 0.0 0.9 0.00 0.00 0.00 86 1017.1
20260506091551 52 0 0.0 0.9 0.00 0.00 0.00 86 1017.1
20260506090048 53 0 0.0 0.9 0.00 0.00 0.00 86 1017.1
20260506084548 53 0 0.0 0.9 0.00 0.00 0.00 85 1017.5
20260506083049 53 0 0.0 0.9 0.00 0.00 0.00 85 1017.5
20260506081552 54 0 0.0 0.9 0.00 0.00 0.00 84 1017.5
20260506073048 55 0 0.0 1.7 0.00 0.00 0.00 82 1017.3
20260506071551 56 0 0.0 0.9 0.00 0.00 0.00 82 1017.3
20260506070105 57 0 0.0 1.7 0.00 0.00 0.00 82 1017.1
20260506061543 58 0 0.0 1.7 0.00 0.00 0.00 81 1016.6
20260506044558 62 0 0.0 3.5 0.00 0.00 0.00 65 1015.5
20260506043050 62 0 0.0 2.6 0.00 0.00 0.00 65 1015.5
20260506041552 63 0 0.0 2.6 0.00 0.00 0.00 64 1015.3